Location: Cactus School
(34.5700°N, 118.0931°W)
Time: 09:23:13
(UTC-07:00)

Vanguard 1 Rocket - Pass Details

Date: 18 April 2024
Orbit: 650 x 4220 km, 34.3° (Epoch: 22 May)

Event Time Altitude Azimuth Distance (km) Brightness Sun altitude
Rises 00:39:01 0° 282° (WNW) 4,503 11.1 -44.3°
Reaches altitude 10° 00:41:27 10° 279° (W) 3,838 10.6 -44.3°
Enters shadow 00:43:57 23° 273° (W) 3,260 10.1 -44.4°
Exits shadow 01:11:49 11° 130° (SE) 6,836 11.6 -44.1°
Drops below altitude 10° 01:12:07 10° 129° (SE) 6,902 11.6 -44.1°
Sets 01:18:25 0° 127° (SE) 8,238 12.1 -43.9°
